Location: Asheville, NC
(35.6000°N, 82.5500°W)
Time: 15:32:10
(UTC-04:00)

XW-2C - Pass Details

Date: 12 March 2018
Orbit: 510 x 531 km, 97.5° (Epoch: 25 June)

Event Time Altitude Azimuth Distance (km) Brightness Sun altitude
Rises 06:55:43 0° 24° (NNE) 2,660 ? -10.9°
Reaches altitude 10° 06:58:03 10° 37° (NE) 1,770 ? -10.4°
Maximum altitude 07:01:22 28° 97° (E) 1,019 ? -9.7°
Drops below altitude 10° 07:04:40 10° 157° (SSE) 1,766 ? -9.1°
Sets 07:06:59 0° 169° (S) 2,653 ? -8.6°
